Back to catalog

COSMOS 1266

AliveNavigationLEO
NORAD 12409·PAYLOAD·🇷🇺 Russia

Launched Apr 21, 1981 from Baikonur Cosmodrome

Loading…

Next Passes (next 24 hours)

TLE

FreshSource: Space-Track

Epoch: Sep 13, 2026, 22:13 UTC

1 12409U 81037A   26256.92631889 -.00000085  00000-0  57857-5 0  9993
2 12409  64.7606  79.1481 0050185 255.2901 104.2595 13.90619204305021

Track COSMOS 1266 in real time with AllMySat

Download on the App Store